Startpagina
METAR-TAF:

METAR-TAF

Vliegvelden :

K13-a, Nederland

Productieplatform

breedte: 53-13-04N, lengte: 3-13-13E, hoogte: 31 m

Actueel weer

Dit bericht is 40 minuten geleden gemaakt, om 09:25 UTC
Wind 13 kt uit het zuiden
Temperatuur 6°C
Vochtigheid 100%
Druk 1017 hPa

METAR: EHJR 190925Z AUTO 18013KT //// // ///////// 06/06 Q1017 RE// W06/H8

Tijdstip: 11:05 (10:05 UTC)


TAF: ontbreekt

Waarnemingen en weersverwachtingen van meer dan 4000 vliegvelden (METAR en TAF).

De beschikbare stations zijn de gele en rode punten op de kaart.

Ga met uw muis naar het station om de naam te zien.

Klik dan om waarnemingen en weersverwachtingen te zien.

kaart wijzigen: klik op de groene knoppen met een zwart kruis om in te zoomen, op de groene knop met een streepje om uit te zoomen of op de groene pijlen voor aangrenzende kaarten.


METAR-TAF: